Regional Weather Roundup
Issued by NWS

Home | Current Version | Previous Version | Text Only | Print | Product List | Glossary Off
Versions: 1 2 3 4 5 6 7 8 9 10 11 12 13 14 15 16 17 18 19 20 21 22 23 24 25 26 27

000
ASUS45 KSLC 192310
RWRUT

UTAH REGIONAL WEATHER ROUNDUP
NATIONAL WEATHER SERVICE SALT LAKE CITY UT
500 PM MDT THU OCT 19 2017

UTZ001>011-023>025-200000-

NORTHERN UTAH

CITY           SKY/WX    TMP DP  RH WIND       PRES   REMARKS
BRIGHAM CITY   SUNNY     70  16  13 CALM      29.86F
DUGWAY         PTSUNNY   76  23  14 SE7       29.84F
HILL AFB       MOSUNNY   69  24  18 NW6       29.87F
LOGAN          SUNNY     73  21  14 CALM      29.86F
OGDEN          MOSUNNY   72  27  18 NW5       29.85F
SALT LAKE CITY MOSUNNY   70  35  27 W9        29.84F
TOOELE VALLEY  MOSUNNY   64  30  27 CALM      29.87F
WENDOVER       SUNNY     61  21  21 CALM      29.85F
WEST JORDAN    MOSUNNY   71  36  28 SE9       29.86F

$$

UTZ011>015-024>027-200000-

CENTRAL/NORTHEAST UTAH

CITY           SKY/WX    TMP DP  RH WIND       PRES   REMARKS
PROVO AIRPORT  MOSUNNY   76  31  19 S5        29.88F
MOAB/CANYONLAN MOSUNNY   77  24  14 NE3       29.90F
DELTA          PTSUNNY   72  32  23 S15G21    29.89S
PRICE          MOSUNNY   68  20  16 SE8       29.98F
RICHFIELD      MOSUNNY   70  36  28 W5        29.93F
ROOSEVELT      SUNNY     68  18  14 E3        29.97F
VERNAL         CLOUDY    68  18  14 SE3       29.95F

$$

UTZ013>016-019>022-027-200000-

SOUTHERN UTAH

CITY           SKY/WX    TMP DP  RH WIND       PRES   REMARKS
BRYCE CANYON   CLOUDY    61  30  31 S14       30.08S
CEDAR CITY     PTSUNNY   73  33  23 S16G23    29.95S
MILFORD        MOSUNNY   72  35  25 S13       29.90F
ST GEORGE      PTCLDY    81  35  19 NW5       29.81F
HANKSVILLE     SUNNY     77  28  16 SE15      29.91F
KANAB          PTSUNNY   75  34  22 S9G15     29.96F
BLANDING         N/A     69  30  23 SW7       30.10S

$$

REGIONAL REPORTS     COLORADO/ARIZONA

CITY           SKY/WX    TMP DP  RH WIND       PRES   REMARKS
CRAIG, CO      CLOUDY    66  26  22 SW8       29.99F
GRAND JUNCTION MOSUNNY   69  22  16 NW3       29.95F
RIFLE, CO      CLOUDY    70  28  21 W16       29.97F
MONTROSE, CO   CLOUDY    71  26  18 NW7       30.00F
CORTEZ, CO     CLOUDY    68  25  19 SW8       30.05F
COLORADO CITY    N/A     79  32  18 W7        29.94F
PAGE, AZ       PTSUNNY   76  29  17 N3        29.89F
GRAND CANYON   LGT RAIN  68  30  24 SW12      30.05F
KINGMAN, AZ    SUNNY     83  36  18 SW15      29.86F
FLAGSTAFF, AZ  MOSUNNY   66  28  24 SW15G23   30.08F

$$

REGIONAL REPORTS    NEVADA/IDAHO/WYOMING

CITY           SKY/WX    TMP DP  RH WIND       PRES   REMARKS
LAS VEGAS, NV  SUNNY     88  26  10 N9        29.74F
ELY, NY        SUNNY     69  21  16 S14       29.93F
ELKO, NV       SUNNY     74  13   9 W12       29.82F
POCATELLO, ID  SUNNY     72  18  13 S21G28    29.81F
BURLEY, ID     SUNNY     76  15  10 S8        29.74F
FORT BRIDGER,    N/A     64  15  14 SE8       30.01F
EVANSTON, WY   CLOUDY    65  18  16 SW14      29.98F
ROCK SPRINGS,  CLOUDY    66   6   9 NW5       29.98F
KEMMERER, WY   SUNNY     64   9  11 SW16G23   29.99F

$$




USA.gov is the U.S. government's official web portal to all federal, state and local government web resources and services.